YAOGAN-30 N

导读

YAOGAN-30 N是中国发射的遥感卫星,于北京时间2019年7月26日8时成功发射入轨。作为中国遥感卫星系列的组成部分,该卫星主要用于开展空间环境探测与相关技术试验,为国土资源勘察、灾害监测等领域提供空间信息支持,体现了中国在航天遥感领域持续推进技术探索与应用拓展的发展节奏。

基本信息
目录编号:
44449
目录名称:
YAOGAN-30 N
国际标识:
2019-045A
轨道中心:
EARTH
卫星名称:
YAOGAN-30 N
卫星全名:
--
卫星状态:
在轨 (已飞行2598 天)
发射日期:
2019-07-26 UTC
国别 :
中国 (CN)
星等 :
--
轨道信息
数据来源 国际轨道数据 AOE轨道数据
星历时间 2026-09-05T13:23:31+0800
2小时前
查看轨道信息
2026-09-03T11:00:00+0800
2天前
查看轨道信息
半长轴 6935.745km 6935.794km
偏心率 0.0004774 0.0004911
轨道倾角 34.993° 34.991°
近地点辐角 260.724° 245.776°
升交点赤经 202.130° 214.939°
平近点角 99.293° 254.850°
近地点 554.296km 554.25km
远地点 560.92km 561.064km
周期 95.807分钟 95.808分钟
每日圈数 15.030143 15.029986
详细信息
使用方式:
暂无
2D轨道图
3D轨道图
轨道高度分析图
轨道倾角分析图
轨道综合分析图
查看轨道综合分析图
交会数据列表
事件ID 空间交会对象 最接近时刻(TCA) 交会距离 交会风险概率(CRP) 交会风险指数(CRI) 操作
CDM_260831-023300-606504-444926
2026-08-31T
02:33:24+0000
1.444 km
极远距离
6.678992E-6 低风险 0.51
CDM_260906-151404-444905-203723
2026-09-06T
15:14:23+0000
1.576 km
极远距离
2.851651E-6 低风险 0.44
CDM_260831-040900-606504-444924
2026-08-31T
04:09:08+0000
2.080 km
极远距离
2.303386E-6 低风险 0.42